Location: Glenmont
(42.6048°N, 73.7696°W)
Time: 23:34:16
(UTC+00:00)

Meteor 1-25 Rocket - Pass Details

Date: 08 September 2024
Orbit: 837 x 889 km, 81.2° (Epoch: 14 October)

Event Time Altitude Azimuth Distance (km) Brightness Sun altitude
Rises 23:33:28 0° 188° (S) 3,447 7.4 -4.0°
Reaches altitude 10° 23:35:54 10° 189° (S) 2,506 6.7 -4.4°
Maximum altitude 23:41:37 88° 278° (W) 866 4.3 -5.4°
Drops below altitude 10° 23:47:17 10° 10° (N) 2,488 6.7 -6.4°
Sets 23:49:41 0° 10° (N) 3,421 7.4 -6.9°
